JEC5412 SKRG-SKCG

Flight info

Callsign JEC5412
Flight time 0h 44m
Altitude 24000
Route LATIS1B LATIS W65 BUTAL/N0371F230 W6 CTG
Aircraft A320/M-SDE3FGHIRWY/LB1

Departure

Time 2026-05-01 12:49
Airport Jose Maria Córdova International Airport (SKRG)

Arrival

Time 2026-05-01 13:33
Airport Rafael Nuñez International Airport (SKCG)
Time Latitude Longitude Altitude Speed Heading
2026-05-01 12:32 6.16970 -75.42799 7019 ft 0 kts 340°
2026-05-01 12:40 6.16962 -75.42796 7020 ft 3 kts 340°
2026-05-01 12:40 6.16941 -75.42789 7018 ft 4 kts
2026-05-01 12:40 6.16920 -75.42797 7018 ft 4 kts 60°
2026-05-01 12:41 6.16915 -75.42810 7020 ft 0 kts 76°
2026-05-01 12:43 6.16916 -75.42804 7020 ft 3 kts 76°
2026-05-01 12:43 6.16932 -75.42761 7018 ft 11 kts 65°
2026-05-01 12:44 6.16984 -75.42694 7018 ft 13 kts 44°
2026-05-01 12:44 6.17053 -75.42634 7017 ft 13 kts 59°
2026-05-01 12:44 6.16923 -75.42518 7021 ft 15 kts 150°
2026-05-01 12:45 6.16681 -75.42484 7005 ft 24 kts 180°
2026-05-01 12:45 6.16488 -75.42483 6998 ft 31 kts 179°
2026-05-01 12:45 6.16261 -75.42481 6989 ft 34 kts 179°
2026-05-01 12:46 6.16017 -75.42480 6983 ft 36 kts 180°
2026-05-01 12:46 6.15766 -75.42478 6980 ft 36 kts 180°
2026-05-01 12:46 6.15512 -75.42477 6979 ft 37 kts 179°
2026-05-01 12:46 6.15258 -75.42475 6978 ft 36 kts 179°
2026-05-01 12:47 6.15005 -75.42473 6977 ft 34 kts 179°
2026-05-01 12:47 6.14900 -75.42450 6975 ft 12 kts 108°
2026-05-01 12:47 6.14900 -75.42365 6977 ft 13 kts 88°
2026-05-01 12:47 6.14965 -75.42312 6977 ft 13 kts 28°
2026-05-01 12:48 6.15076 -75.42305 6976 ft 29 kts 358°
2026-05-01 12:48 6.15535 -75.42307 6981 ft 99 kts
2026-05-01 12:48 6.16415 -75.42313 6991 ft 151 kts 360°
2026-05-01 12:48 6.17600 -75.42321 7209 ft 181 kts 359°
2026-05-01 12:49 6.18896 -75.42330 7871 ft 191 kts
2026-05-01 12:49 6.20258 -75.42329 8323 ft 206 kts
2026-05-01 12:49 6.21705 -75.42059 8506 ft 222 kts 36°
2026-05-01 12:49 6.22612 -75.40806 8703 ft 234 kts 80°
2026-05-01 12:50 6.22512 -75.39117 8938 ft 254 kts 100°
2026-05-01 12:50 6.22602 -75.37281 9294 ft 277 kts 75°
2026-05-01 12:50 6.23403 -75.35456 9809 ft 291 kts 64°
2026-05-01 12:50 6.24394 -75.33700 10663 ft 288 kts 62°
2026-05-01 12:51 6.25418 -75.31904 10987 ft 306 kts 63°
2026-05-01 12:51 6.26486 -75.29952 11167 ft 327 kts 63°
2026-05-01 12:51 6.28660 -75.25827 12250 ft 339 kts 58°
2026-05-01 12:52 6.30360 -75.24196 12817 ft 348 kts 31°
2026-05-01 12:52 6.35179 -75.23383 13939 ft 361 kts 358°
2026-05-01 12:52 6.37691 -75.23644 14459 ft 365 kts 354°
2026-05-01 12:53 6.42774 -75.24236 15507 ft 370 kts 356°
2026-05-01 12:53 6.45353 -75.24512 16025 ft 373 kts 355°
2026-05-01 12:53 6.47938 -75.24904 16502 ft 376 kts 352°
2026-05-01 12:54 6.50520 -75.25433 17021 ft 379 kts 349°
2026-05-01 12:54 6.55654 -75.26764 18058 ft 386 kts 346°
2026-05-01 12:54 6.58258 -75.27496 18548 ft 389 kts 346°
2026-05-01 12:55 6.63535 -75.28953 19417 ft 394 kts 347°
2026-05-01 12:55 6.66197 -75.29664 19888 ft 397 kts 347°
2026-05-01 12:55 6.68874 -75.30369 20340 ft 399 kts 347°
2026-05-01 12:56 6.71581 -75.31076 20791 ft 402 kts 347°
2026-05-01 12:56 6.74265 -75.31777 21227 ft 404 kts 347°
2026-05-01 12:56 6.77002 -75.32494 21612 ft 407 kts 347°
2026-05-01 12:56 6.79757 -75.33216 22023 ft 410 kts 346°
2026-05-01 12:57 6.82535 -75.33945 22451 ft 413 kts 346°
2026-05-01 12:57 6.88134 -75.35414 23271 ft 418 kts 346°
2026-05-01 12:57 6.90932 -75.36147 23679 ft 421 kts 346°
2026-05-01 12:58 6.93781 -75.36892 23931 ft 423 kts 346°
2026-05-01 12:58 6.96632 -75.37642 24022 ft 420 kts 346°
2026-05-01 12:58 6.99417 -75.38378 24047 ft 408 kts 346°
2026-05-01 12:59 7.04974 -75.39314 24050 ft 403 kts 356°
2026-05-01 12:59 7.07732 -75.39527 24005 ft 402 kts 356°
2026-05-01 12:59 7.13313 -75.39970 24009 ft 402 kts 356°
2026-05-01 13:00 7.18906 -75.40423 24008 ft 402 kts 356°
2026-05-01 13:00 7.21697 -75.40649 24012 ft 402 kts 356°
2026-05-01 13:01 7.27292 -75.41094 24010 ft 402 kts 356°
2026-05-01 13:01 7.30058 -75.41312 24013 ft 403 kts 356°
2026-05-01 13:01 7.35657 -75.41753 23981 ft 403 kts 356°
2026-05-01 13:02 7.38433 -75.41973 23976 ft 403 kts 356°
2026-05-01 13:07 7.97348 -75.46005 23889 ft 404 kts 359°
2026-05-01 13:07 8.00160 -75.46033 23880 ft 404 kts 359°
2026-05-01 13:07 8.02973 -75.46073 23884 ft 404 kts 359°
2026-05-01 13:08 8.05747 -75.46126 23884 ft 404 kts 359°
2026-05-01 13:08 8.08561 -75.46188 23874 ft 404 kts 358°
2026-05-01 13:08 8.11375 -75.46252 23876 ft 404 kts 358°
2026-05-01 13:08 8.14199 -75.46316 23879 ft 404 kts 358°
2026-05-01 13:09 8.17015 -75.46379 23878 ft 404 kts 359°
2026-05-01 13:09 8.19828 -75.46439 23877 ft 404 kts 359°
2026-05-01 13:09 8.22644 -75.46498 23872 ft 404 kts 359°
2026-05-01 13:09 8.25425 -75.46553 23877 ft 404 kts 359°
2026-05-01 13:10 8.28241 -75.46611 23877 ft 404 kts 359°
2026-05-01 13:10 8.31059 -75.46671 23869 ft 404 kts 359°
2026-05-01 13:10 8.33876 -75.46732 23875 ft 404 kts 359°
2026-05-01 13:10 8.36690 -75.46790 23878 ft 404 kts 359°
2026-05-01 13:11 8.38563 -75.46828 23870 ft 404 kts 359°
2026-05-01 13:11 8.41380 -75.46886 23878 ft 404 kts 359°
2026-05-01 13:11 8.45143 -75.46966 23873 ft 404 kts 359°
2026-05-01 13:11 8.47924 -75.47026 23871 ft 404 kts 359°
2026-05-01 13:12 8.49827 -75.47066 23872 ft 404 kts 359°
2026-05-01 13:12 8.52643 -75.47123 23882 ft 404 kts 359°
2026-05-01 13:12 8.55425 -75.47175 23880 ft 404 kts 359°
2026-05-01 13:12 8.58243 -75.47229 23883 ft 404 kts 359°
2026-05-01 13:13 8.61055 -75.47287 23878 ft 404 kts 359°
2026-05-01 13:13 8.63872 -75.47346 23883 ft 404 kts 359°
2026-05-01 13:13 8.66663 -75.47407 23874 ft 404 kts 359°
2026-05-01 13:13 8.69513 -75.47468 23874 ft 404 kts 359°
2026-05-01 13:14 8.72288 -75.47527 23881 ft 404 kts 359°
2026-05-01 13:14 8.75103 -75.47586 23883 ft 404 kts 359°
2026-05-01 13:14 8.77926 -75.47647 23876 ft 404 kts 359°
2026-05-01 13:14 8.80742 -75.47708 23883 ft 404 kts 359°
2026-05-01 13:15 8.83534 -75.47767 23882 ft 404 kts 359°
2026-05-01 13:15 8.86360 -75.47826 23875 ft 404 kts 359°
2026-05-01 13:15 8.89178 -75.47886 23876 ft 405 kts 359°
2026-05-01 13:15 8.91970 -75.47944 23879 ft 405 kts 359°
2026-05-01 13:16 8.94785 -75.48002 23882 ft 405 kts 359°
2026-05-01 13:16 8.97605 -75.48061 23883 ft 405 kts 359°
2026-05-01 13:16 9.00434 -75.48118 23883 ft 405 kts 359°
2026-05-01 13:17 9.08833 -75.48289 22961 ft 399 kts 359°
2026-05-01 13:17 9.11611 -75.48346 22492 ft 397 kts 359°
2026-05-01 13:18 9.17060 -75.48463 21849 ft 383 kts 359°
2026-05-01 13:18 9.19702 -75.48522 21596 ft 376 kts 359°
2026-05-01 13:18 9.22274 -75.48577 21184 ft 373 kts 359°
2026-05-01 13:18 9.24866 -75.48629 20746 ft 372 kts 359°
2026-05-01 13:19 9.27447 -75.48682 20305 ft 370 kts 359°
2026-05-01 13:19 9.30022 -75.48733 19866 ft 369 kts 359°
2026-05-01 13:19 9.35150 -75.48835 18986 ft 366 kts 360°
2026-05-01 13:20 9.37701 -75.48888 18582 ft 364 kts 360°
2026-05-01 13:20 9.40195 -75.48942 18474 ft 352 kts 360°
2026-05-01 13:20 9.42577 -75.48994 18331 ft 342 kts 359°
2026-05-01 13:21 9.47226 -75.49098 18026 ft 325 kts 359°
2026-05-01 13:21 9.49463 -75.49148 17878 ft 317 kts 360°
2026-05-01 13:21 9.51642 -75.49201 17456 ft 319 kts 359°
2026-05-01 13:21 9.53877 -75.49264 17017 ft 321 kts 359°
2026-05-01 13:22 9.56116 -75.49330 16593 ft 323 kts 359°
2026-05-01 13:22 9.58372 -75.49398 16145 ft 325 kts 359°
2026-05-01 13:22 9.60620 -75.49466 15881 ft 321 kts 359°
2026-05-01 13:22 9.62863 -75.49533 15473 ft 323 kts 359°
2026-05-01 13:23 9.65087 -75.49600 15058 ft 324 kts 359°
2026-05-01 13:23 9.67355 -75.49665 14627 ft 326 kts 360°
2026-05-01 13:23 9.69632 -75.49730 14195 ft 328 kts 360°
2026-05-01 13:23 9.71932 -75.49798 13754 ft 331 kts 360°
2026-05-01 13:24 9.74237 -75.49869 13278 ft 332 kts 360°
2026-05-01 13:24 9.76545 -75.49940 12838 ft 332 kts 360°
2026-05-01 13:24 9.78903 -75.50022 12441 ft 354 kts 359°
2026-05-01 13:25 9.83961 -75.50200 11780 ft 357 kts
2026-05-01 13:25 9.86360 -75.50259 11487 ft 338 kts 360°
2026-05-01 13:25 9.88620 -75.50323 11162 ft 310 kts 360°
2026-05-01 13:25 9.90703 -75.50382 10712 ft 292 kts 360°
2026-05-01 13:26 9.92715 -75.50440 9996 ft 287 kts 360°
2026-05-01 13:26 9.94714 -75.50496 9399 ft 292 kts 360°
2026-05-01 13:26 9.96737 -75.50558 8898 ft 289 kts 360°
2026-05-01 13:26 9.98743 -75.50633 8455 ft 289 kts 359°
2026-05-01 13:27 10.00741 -75.50709 8213 ft 285 kts 360°
2026-05-01 13:27 10.02716 -75.50781 8000 ft 290 kts 360°
2026-05-01 13:27 10.06756 -75.50912 7389 ft 287 kts
2026-05-01 13:28 10.10706 -75.50997 6795 ft 284 kts
2026-05-01 13:28 10.12686 -75.51033 6189 ft 281 kts
2026-05-01 13:29 10.16551 -75.51107 5273 ft 281 kts
2026-05-01 13:29 10.20524 -75.51158 4439 ft 291 kts
2026-05-01 13:30 10.28732 -75.51437 2761 ft 290 kts 359°
2026-05-01 13:31 10.32477 -75.51514 2170 ft 255 kts 360°
2026-05-01 13:31 10.37511 -75.51545 1010 ft 224 kts
2026-05-01 13:32 10.40279 -75.51411 636 ft 171 kts
2026-05-01 13:33 10.43375 -75.51325 56 ft 139 kts
2026-05-01 13:33 10.44512 -75.51279 51 ft 16 kts 354°
2026-05-01 13:34 10.44555 -75.51421 51 ft 10 kts 267°
2026-05-01 13:34 10.44530 -75.51511 51 ft 5 kts 264°
2026-05-01 13:35 10.44531 -75.51551 51 ft 0 kts 270°